Dauntless Aviation
Greetings, Guest! To participate, [sign up for a free account] or [log in]
Airports Europe United Kingdom
EGPY

Dounreay Thurso

UNITED KINGDOM

Airport Info
Edit

Location

Latitude / Longitude: 58°35'3"N / 3°43'31"W
  58°35.052'N / 3°43.518'W
  58.5842 / -3.7253

Runway Information

Runway 04 /22

Dimensions: 3300 x 100 ft.
Surface: U
 
Runway 04
Runway 22
Latitude: 58.579444 58.586944
Longitude: -3.731389 -3.721667
Elevation: 130 ft. 130 ft.
Runway true heading: 33.4 213.4
 
Satellite photo at:
Airport distance calculator
From:
Weather Reports

METAR

EGPC
22.2nm E
EGPC 181650Z 26010KT 9999 -SHRA FEW020 SCT030 04/01 Q0989
EGPA
34.2nm NE
EGPA 181650Z 27015KT 9999 VCSH FEW008CB SCT020 SCT035 05/03 Q0987 RERA RESN

TAF

EGPC
22.2nm E
TAF EGPC 181402Z 1815/1824 26009KT 9999 FEW030 TEMPO 1815/1824 25015G25KT 6000 SHRA PROB30 TEMPO 1818/1824 4000 SHRASN BKN006
EGPA
34.2nm NE
TAF EGPA 181402Z 1815/1824 26015KT 9999 FEW015 SCT025 TEMPO 1815/1824 27023G35KT 6000 SHRA BKN009 PROB30 TEMPO 1818/1824 4000 SHRASN BKN006
Safelog

 

Dauntless Aviation

© 2007-2014 Dauntless Aviation, all rights reserved
Information provided via PilotNav comes from a variety of official and unofficial data sources. As errors are possible, do not use PilotNav for primary flight planning purposes. Verify any information that you receive via PilotNav with current and canonical charts and other official documents. The material in this database is subject to database copyrights held by Dauntless Aviation and may not be copied without the express permission of Dauntless Aviation - licenses for use of part of all of this data are available for purchase; enquire via the Dauntless Aviation helpdesk. A number of mechanisms and markers exist in the database to protect against and identify infringement / copyright. Automated queries against this website are stictly prohibited, and all activity is logged and analyzed.